AQI (40)

Current Conditions for Foresthill, CA. Dawn, Clear skies, Dry   
Visibility: 10 miles
Space WX Alerts: CONTINUED ALERT:  Electron 2MeV Integral Flux exceeded 1000pfu ( Latest Alert ) - Issue Time: 2022 Jan 22 0538 UTC

  Summary / Temperature 

Current Temperature
44.9°F
7.2°C
(24/hr Ago)
43.6°F
(Apparent temp)
36.6°F
Cool
Wind Chill Graphs
44.9°F 
Wind Chill-Avg
42.6°F 5.9°C
 --- Virtual Temp: 45.7°F ---

 Temp Rate:

 24/hr Difference:

 Avg Running Temp:

 Todays High:

 Todays Low:

 Y-days High:

 Y-days Low:

 Todays WChill:

 Y-days WChill:

 Evapotranspiration:

-1.8°F/hr 

+1.3°F

45.8°F

50.8°F 3:43am

44.7°F 5:58am

62.9°F 2:12pm

42.4°F 6:19am

36.4°F 5:57am

35.5°F 11:21pm

0.033 in

115' Above Ground

 Temperature:

 6'AGL VRS 115'AGL:

 Avg Running Temp:

 Humidity:

 Todays High:

 Todays Low:

 Y-days High:

 Y-days Low:

55.0°F 

+10.1°F

55.0°F

0% 

55.0°F 12:00am

55.0°F 12:00am

63.0°F 2:08pm

52.0°F 9:32am

Temp & Humidity Graphs

  Wind 

Wind Speed

 Calm

Gusting to

 16.0 mph

Wind from ESE

111°  ESE

Calm

 Avg speed:

 Wind Run:

 Peak Gust:

  6.0 mph 

74.0 miles

  40.0 mph 3:53am

  Almanac  

Moon age: 19 days,3 hours,58 minutes,80%

Waning Gibbous
79%
Illuminated
19 days in cycle

 Moonrise:

 Moonset:

 Sunrise:

 Sunset:

 Solar Noon:

10:09pm

10:08am

7:14am

5:10pm

12:15pm

1min 41s more daylight tomorrow 

  Solar Radiation 

(Current Solar)
  7 W/m2
(Todays High)
 7 W/m2@7:06am

Rain

 Rain Today:

 Rain Rate (/hr):

 Rain last hour:

 Rain Yesterday:

 This Month:

 Season Total:

14 Days Since Last Rain Day

0.00 in

0.000 in

0.00 in

0.00 in

1.20 in

29.66 in

Updated Time

Updated: 1/22/22  7:07am

(Updated  sec ago)

Humidity & Barometer

 Humidity:

 Wetbulb:

 Dew Point:

 Barometer:

38% 

37.6°F 

20.8°F 

30.205 inHg 

 Baro Trend:  Rising Slowly 
Northern Calif
Preparedness
Fire 
Level 

    UV Index  

(Current UV)
0.0  None
(Todays High) @ 12:00am
0.0   None

National Weather Service Forecast

Today

Mostly Sunny
Mostly Sunny
Tonight

Clear
Clear
Sunday

Sunny
Sunny
Sunday
Night
Clear
Clear
Monday

Sunny
Sunny
Monday
Night
Mostly Clear
Mostly Clear
Hi ≈62°F Lo ≈40°F Hi ≈61°F Lo ≈39°F Hi ≈60°F Lo ≈39°F

Foresthill Probe 2 Stats  
Foresthill Probe 2: is located on Thomas Street
at 3000 feet. The main Foresthill Weather site
is located on Melody ln at the 2860 foot elevation

Calm
43.4°F
6.3°C
Temp Rate:
-1.6°F
3.0 mph
Gusting to
3.0 mph
(Humidity)
41%
Wind from NW
324°  NW
Updated: 22/01/22 - 07:07:15
 Todays High: 48.9°F 03:39
 Todays Low: 43.0°F 06:10
 Rain Today: 0.00 in
 Season Total: 29.24 in

Foresthill Wx: Monthly,Yearly, Highs and Lows 

Foresthill  
This Weather Data is coming from the main Foresthill
Weather site located on Melody ln at the 2860 foot
elevation
Not Foresthill Probe 2
Weather Data
Month
  High
Month
  Low
Year
High
Year
Low
Temp 67.7°F
1/12/22
27.3°F
1/1/22
67.7°F
1/12/22
27.3°F
1/1/22
Humidity 100%
1/4/22
21%
1/21/22
100%
1/4/22
21%
1/21/22
Heat Index 67.4°F
1/12/22
32.0°F
1/1/22
67.4°F
1/12/22
32.0°F
1/1/22
Wind Chill 67.7°F
1/12/22
14.3°F
1/1/22
67.7°F
1/12/22
14.3°F
1/1/22
Wind Gust 40 mph
1/22/22
0 mph
1/1/22
40 mph
1/22/22
0 mph
1/1/22
Barometer 30.55 in
1/10/22
29.96 in
1/7/22
30.55 in
1/10/22
29.96 in
1/7/22
ET 0.10 in
1/14/22
0.00 in
1/1/22
0.10 in
1/14/22
0.00 in
1/1/22
Dew Point 48.2°F
1/6/22
15.4°F
1/22/22
48.2°F
1/6/22
15.4°F
1/22/22
Visible Satellite Pacific Satellite US Radar Satellite Imagery Sacramento,CA.  (click to enlarge)
NWS Weather Forecast - Summary
Updated: Saturday, January 22, 2022 - 1:30am PST
NWS Weather Forecast: Today and Tonight (Updated: Sat, 22-Jan-2022 1:35am PST)
Today

Mostly Sunny
Mostly Sunny
Hi ≈62°F
NWS forecast: Mostly sunny. Highs 57 to 67. Prevailing northeast winds up to 15 mph.
Tonight

Clear
Clear
Lo ≈40°F
NWS forecast: Clear. Lows 36 to 44. Prevailing east winds up to 10 mph.
YR.NO 10 Day Weather forecast
Last update: 01/22/2022 @ 05:35
Next update: 01/22/2022 @ 11:35
Provided by: 22
      Temperature Precipitation Pressure Wind  
Today
01/22/2022
05:00 06:00 41°F   30.19 inHg Moderate breeze from east-northeast 14 mph
  06:00 12:00 41°F   30.17 inHg Moderate breeze from east-northeast 14 mph
  12:00 18:00 54°F   30.12 inHg Light air from west-northwest 3 mph
  18:00 00:00 46°F   30.16 inHg Gentle breeze from east-northeast 10 mph
    (Click to enlarge)
meteogram

    Forecast for next 9 days

      Temperature Precip Pressure Wind  
Sunday
01/23/2022
00:00 06:00 45°F   30.23 inHg Moderate breeze from east-northeast 13 mph
  06:00 12:00 36°F   30.24 inHg Light breeze from east-northeast 7 mph
  12:00 18:00 59°F   30.24 inHg Light air from west 1 mph
  18:00 00:00 45°F   30.25 inHg Light air from east-northeast 2 mph
      Temperature Precip Pressure Wind  
Monday
01/24/2022
00:00 06:00 34°F   30.26 inHg Light breeze from east 7 mph
  06:00 12:00 30°F   30.22 inHg Light breeze from east 6 mph
  12:00 18:00 55°F   30.17 inHg Light air from west-southwest 3 mph
  16:00 22:00 52°F   30.13 inHg Light air from west-southwest 2 mph
  22:00 04:00 30°F   30.13 inHg Light breeze from east-northeast 5 mph
      Temperature Precip Pressure Wind  
Tuesday
01/25/2022
04:00 10:00 30°F   30.10 inHg Light breeze from east 5 mph
  10:00 16:00 50°F   30.07 inHg Light air from northeast 1 mph
  16:00 22:00 52°F   30.01 inHg Light air from west-southwest 3 mph
  22:00 04:00 30°F   30.08 inHg Light air from east 3 mph
      Temperature Precip Pressure Wind  
Wednesday
01/26/2022
04:00 10:00 32°F   30.06 inHg Light breeze from east-northeast 7 mph
  10:00 16:00 55°F   30.11 inHg Light air from east-northeast 2 mph
  16:00 22:00 55°F   30.09 inHg Light air from west 2 mph
  22:00 04:00 36°F   30.13 inHg Light breeze from east-northeast 6 mph
      Temperature Precip Pressure Wind  
Thursday
01/27/2022
04:00 10:00 30°F   30.13 inHg Light breeze from east-northeast 6 mph
  10:00 16:00 54°F   30.15 inHg Light breeze from east 4 mph
  16:00 22:00 55°F   30.11 inHg Light air from southwest 2 mph
  22:00 04:00 36°F   30.14 inHg Light breeze from east 6 mph
      Temperature Precip Pressure Wind  
Friday
01/28/2022
04:00 10:00 34°F   30.17 inHg Light breeze from east 6 mph
  10:00 16:00 46°F   30.20 inHg Light air from south 2 mph
  16:00 22:00 46°F 0.10 in 30.19 inHg Light breeze from south-southwest 7 mph
  22:00 04:00 41°F 0.03 in 30.25 inHg Light breeze from south-southeast 5 mph
      Temperature Precip Pressure Wind  
Saturday
01/29/2022
04:00 10:00 41°F   30.27 inHg Light air from southeast 3 mph
  10:00 16:00 46°F   30.31 inHg Light breeze from south 4 mph
  16:00 22:00 48°F   30.23 inHg Light breeze from west 4 mph
  22:00 04:00 32°F   30.23 inHg Light breeze from east 4 mph
      Temperature Precip Pressure Wind  
Sunday
01/30/2022
04:00 10:00 30°F   30.18 inHg Light breeze from east 5 mph
  10:00 16:00 52°F   30.17 inHg Light air from southwest 1 mph
  16:00 22:00 48°F   30.10 inHg Light air from west-southwest 3 mph
  22:00 04:00 37°F   30.10 inHg Light air from east 3 mph
      Temperature Precip Pressure Wind  
Monday
01/31/2022
04:00 10:00 41°F 0.37 in 30.04 inHg Light breeze from southeast 5 mph

NOAA Local Storm Report
4 MILES NORTHWEST OF ZAMORA   ( More )
DATE
01/21/2022
TIME
1:41 PM
COUNTY
YOLO
STATE
CA
GEOGRAPHIC
38.84N 121.92W
SOURCE
LAW ENFORCEMENT
NON-THUNDERSTORM WIND DAMAGE
large tree limb blocking a lane.
How Close Are We To this Month's Temperature Record ?
Updated Saturday, Jan 22, 2022- 7:05:00 AM

Current Temperature: 44.9°F

January's High: Temperature Record 71.3°F - Set on Sat, Jan 24, 2015 - 3:19:00 PM
We are currently 26.4°F Less than this Month's record High

January's Low: Temperature Record 24.7°F - Set on Sun, Jan 13, 2013 - 7:29:00 AM
We are currently 20.2°F More than this Month's record Low

Weather History N/A


On this Day - In Weather History ...
Data courtesy of weatherforyou.com
powered by Cumulus v1.9.3 (1059)
Ambient Weather VWS v14.00
Top Website Map Copyright © 2007 - 2022 Foresthillweather.com Never base important decisions on this or any weather information obtained from the Internet